FW4331 Weather Reports


time (UTC)temp
C
wind
direction
speed
KPH
gust
KPH
rain 1hr
cm
rain 24hr
cm
rain mn
cm
humidity
%
barometer
mb
20260903084507 21 20 0.0 0.0 0.00 0.03 0.00 48 1014.9
20260903083007 21 20 0.0 0.0 0.00 0.03 0.00 48 1014.8
20260903081505 22 20 0.0 1.6 0.00 0.03 0.00 48 1014.8
20260903080003 21 20 1.6 4.8 0.00 0.03 0.00 48 1015.0
20260903074610 21 28 0.0 1.6 0.00 0.03 0.00 48 1015.0
20260903073135 21 29 0.0 0.0 0.00 0.03 0.00 47 1014.8
20260903071618 21 192 0.0 0.0 0.00 0.03 0.00 47 1014.6
20260903070055 21 235 1.6 4.8 0.00 0.03 0.00 47 1014.6
20260903064552 21 202 1.6 6.4 0.00 0.03 0.00 46 1014.5
20260903063056 21 208 1.6 4.8 0.00 0.03 0.00 46 1014.5
20260903061547 21 226 0.0 0.0 0.00 0.03 0.00 44 1014.6
20260903060111 21 232 0.0 0.0 0.00 0.03 0.00 41 1014.9
20260903054541 21 177 0.0 0.0 0.00 0.03 0.00 39 1015.1
20260903053036 22 235 0.0 0.0 0.00 0.03 0.00 40 1015.3
20260903051533 22 174 0.0 0.0 0.00 0.03 0.00 43 1015.4
20260903050032 22 141 0.0 0.0 0.00 0.03 0.00 45 1015.4
20260903044528 22 118 1.6 4.8 0.00 0.03 0.00 45 1015.5
20260903043026 22 130 3.2 8.0 0.00 0.03 0.00 45 1015.6
20260903041521 22 131 1.6 3.2 0.00 0.03 0.00 45 1015.5
20260903040018 22 147 3.2 6.4 0.00 0.03 0.00 45 1015.3
20260903034515 22 129 0.0 0.0 0.00 0.03 0.03 44 1015.4
20260903033014 22 166 0.0 0.0 0.00 0.03 0.03 45 1015.6
20260903031510 22 254 0.0 0.0 0.00 0.03 0.03 47 1015.5
20260903030010 22 254 0.0 0.0 0.00 0.03 0.03 47 1015.4
20260903024505 22 254 0.0 0.0 0.00 0.03 0.03 46 1015.3
20260903023004 22 252 0.0 0.0 0.00 0.03 0.03 46 1015.2
20260903021508 22 279 0.0 0.0 0.00 0.03 0.03 46 1015.2
20260903020103 22 278 0.0 0.0 0.00 0.03 0.03 46 1015.0
20260903014606 22 258 0.0 0.0 0.00 0.03 0.03 47 1015.3
20260903013055 22 269 0.0 0.0 0.00 0.03 0.03 47 1015.6
20260903011553 22 272 0.0 0.0 0.00 0.03 0.03 47 1015.6
20260903010052 23 248 0.0 0.0 0.00 0.03 0.03 46 1015.6
20260903004552 23 268 0.0 4.8 0.00 0.03 0.03 46 1015.6
20260903003145 23 237 0.0 3.2 0.00 0.03 0.03 46 1015.5
20260903001549 23 262 0.0 1.6 0.00 0.03 0.03 46 1015.9
20260903000040 23 262 0.0 6.4 0.00 0.03 0.03 47 1016.2
20260902234553 23 274 0.0 0.0 0.00 0.03 0.03 49 1015.7
20260902233038 24 249 0.0 0.0 0.00 0.03 0.03 52 1015.6
20260902231542 24 276 0.0 0.0 0.00 0.03 0.03 54 1015.6
20260902230033 24 255 0.0 0.0 0.00 0.03 0.03 54 1016.1
20260902224529 25 269 0.0 0.0 0.00 0.03 0.03 56 1016.2
20260902223028 25 262 0.0 0.0 0.00 0.03 0.03 56 1016.0
20260902221528 26 269 0.0 4.8 0.00 0.03 0.03 55 1015.7
20260902220030 26 194 0.0 4.8 0.00 0.03 0.03 53 1015.8
20260902214521 25 238 0.0 0.0 0.00 0.03 0.03 47 1016.0
20260902213019 24 143 0.0 0.0 0.00 0.03 0.03 40 1016.3
20260902211616 23 211 0.0 1.6 0.00 0.03 0.03 40 1016.5
20260902210014 23 188 1.6 6.4 0.00 0.03 0.03 40 1016.1
20260902204512 23 241 0.0 0.0 0.00 0.03 0.03 41 1016.1
20260902203009 23 352 0.0 3.2 0.00 0.03 0.03 42 1015.8
20260902201507 23 239 0.0 6.4 0.03 0.03 0.03 43 1016.2
20260902200004 23 266 0.0 3.2 0.03 0.03 0.03 47 1016.6
20260902194602 24 45 0.0 1.6 0.03 0.03 0.03 55 1016.7
20260902193059 25 6 0.0 3.2 0.03 0.03 0.03 59 1016.8
20260902191557 25 273 1.6 8.0 0.00 0.00 0.00 62 1016.5
20260902190054 27 53 6.4 14.5 0.00 0.00 0.00 55 1017.0
20260902184551 29 114 9.7 24.1 0.00 0.00 0.00 52 1016.2
20260902183050 31 39 12.9 27.4 0.00 0.00 0.00 49 1016.0
20260902181555 32 133 1.6 12.9 0.00 0.00 0.00 45 1015.8
20260902180055 33 91 3.2 12.9 0.00 0.00 0.00 46 1015.8
20260902174553 33 298 1.6 8.0 0.00 0.00 0.00 44 1016.0
20260902173046 34 277 1.6 8.0 0.00 0.00 0.00 43 1016.2
20260902171554 33 44 1.6 6.4 0.00 0.00 0.00 44 1016.3
20260902170042 32 319 1.6 11.3 0.00 0.00 0.00 45 1016.5
20260902164640 33 298 3.2 8.0 0.00 0.00 0.00 46 1016.6
20260902163038 32 338 0.0 4.8 0.00 0.00 0.00 47 1016.4
20260902161541 31 252 1.6 8.0 0.00 0.00 0.00 48 1016.6
20260902160034 31 268 1.6 9.7 0.00 0.00 0.00 50 1016.6
20260902154533 31 237 4.8 8.0 0.00 0.00 0.00 50 1016.5
20260902153035 31 223 4.8 9.7 0.00 0.00 0.00 51 1016.4
20260902151531 31 213 1.6 8.0 0.00 0.00 0.00 48 1016.6
20260902150030 30 289 1.6 6.4 0.00 0.00 0.00 50 1016.5
20260902144525 30 160 1.6 9.7 0.00 0.00 0.00 50 1016.5
20260902143023 30 176 1.6 6.4 0.00 0.00 0.00 51 1016.3
20260902141524 30 79 3.2 6.4 0.00 0.00 0.00 52 1016.5
20260902140016 29 112 3.2 8.0 0.00 0.00 0.00 52 1016.5
20260902134506 28 166 1.6 6.4 0.00 0.00 0.00 53 1016.3
20260902133005 28 262 0.0 3.2 0.00 0.00 0.00 54 1016.4
20260902131600 28 103 0.0 6.4 0.00 0.00 0.00 54 1016.4
20260902130055 27 135 3.2 6.4 0.00 0.00 0.00 55 1016.4
20260902124555 27 29 0.0 3.2 0.00 0.00 0.00 55 1016.4
20260902123147 26 131 0.0 4.8 0.00 0.00 0.00 55 1016.1
20260902121615 25 41 0.0 0.0 0.00 0.00 0.00 56 1016.0
20260902120044 25 330 0.0 0.0 0.00 0.00 0.00 57 1016.2
20260902114603 24 22 0.0 0.0 0.00 0.00 0.00 59 1016.2
20260902113047 23 27 0.0 0.0 0.00 0.00 0.00 59 1016.0
20260902111530 -17 0.0 0.0 0.00 0.00 0.00 1015.9
20260902110036 -17 0.0 0.0 0.00 0.00 0.00 1016.0
20260902104532 -17 0.0 0.0 0.00 0.00 0.00 1016.0
20260902103021 -17 0.0 0.0 0.00 0.00 0.00 1016.1
20260902101510 -17 352 0.0 0.0 0.00 0.00 0.00 1015.7
20260902100011 23 356 0.0 0.0 0.00 0.00 0.00 62 1015.6
20260902094503 24 356 0.0 0.0 0.00 0.00 0.00 62 1015.5
20260902093111 24 356 0.0 0.0 0.00 0.00 0.00 61 1015.5
20260902091559 24 349 0.0 0.0 0.00 0.00 0.00 61 1015.4
20260902090101 24 328 0.0 1.6 0.00 0.00 0.00 61 1015.4